1st Responders/1st Detectors/Storm Spotters Weather Summary for Carroll County, KY

Forecast Maps


Reg. NEXRAD Animation


National Fire Danger: Day 1 & 2 Map

Current NWS Watch/Warnings

SPC Convective Day 1 Outlook


Day 2 Outlook

(Click images to enlarge|Page will refresh every 5 minutes)
UK Ag. Weather Center Desktop Severe Weather Service[HERE]
Carroll County, KY Hazardous Weather Outlook Webcast
(9 AM to 9 PM Mon-Fri)
[Fast]
[Dial-up]


UKAWC 1st Detectors/1st Responders Precision Weather Forecast For CARROLL County, Kentucky
(based on the NWS County Digital Forecast)

ISSUED AT 17:00 UTC ON FRIDAY MAR 22 2019
DAY FRIDAY
EDT 3HR 2P 3P 4P 5P 6P 7P
MAX/MIN -- -- -- -- -- 52°
TEMP 50° 50° 49° 49° 47° 45°
SKY COVER 62% 55% 48% 41% 34% 27%
Clouds
DEW PT 34° 32° 31° 31° 29° 29°
RH 51% 49% 49% 49% 51% 51%
POP 12HR -- -- -- -- -- --
RAIN/SNOW (liq.equ) 0.00in -- -- -- -- --
SNOWFALL 0in -- -- -- -- --
WIND SPEED(MPH) 16 17 17 16 15 14
WIND Gust(MPH) 25 26 26 24 22 17
WIND DIR NW NW NW NW NW NW
DEW -- -- -- -- -- --
HeatIndex 50 50 49 49 47 45
Rain Showers -- -- -- -- -- --
WIND CHILL -- -- -- -- -- 39°
SPRAY COND
DRY COND
LIVESTOCK COLDSTRESS



DAY SATURDAY SUNDAY MONDAY TUESDAY WEDNESDAY THURSDAY
EDT 6HR 8P 9P 10P 11P MIDN 1A 2A 3A 4A 5A 6A 7A 8A 9A 10A 11A NOON 1P 2P 3P 4P 5P 6P 7P 8P 9P 10P 11P MIDN 1A 2A 5A 8A 11A 2P 5P 8P 2A 8A 2P 8P 2A 8A 2P 8P 2A 8A 2P 8P 2A 8A 2P 8P
MAX/MIN -- -- -- -- -- -- -- -- -- -- -- -- 25° -- -- -- -- -- -- -- -- -- -- 52° -- -- -- -- -- -- -- -- 34° -- -- 59° -- -- 47° 52° -- -- 27° 47° -- -- 27° 56° -- -- 38° 67° --
TEMP 43° 41° 40° 38° 36° 36° 34° 32° 31° 29° 27° 25° 27° 29° 31° 36° 40° 45° 49° 50° 52° 52° 50° 49° 47° 45° 41° 40° 38° 38° 38° 36° 36° 47° 58° 58° 54° 49° 49° 49° 43° 32° 29° 43° 40° 31° 29° 52° 49° 40° 40° 61° 59°
SKY COVER 20% 18% 15% 13% 11% 8% 6% 5% 5% 4% 3% 3% 2% 2% 2% 2% 2% 2% 2% 2% 2% 2% 2% 2% 3% 7% 12% 16% 21% 25% 29% 54% 73% 69% 82% 86% 90% 97% 100% 90% 29% 5% 4% 5% 11% 13% 5% 5% 13% 28% 36% 43% 62%
Clouds
DEW PT 27° 27° 27° 25° 25° 25° 23° 23° 23° 23° 22° 22° 22° 22° 22° 22° 22° 22° 22° 22° 22° 22° 22° 23° 25° 25° 25° 25° 25° 25° 27° 25° 27° 31° 36° 40° 43° 45° 45° 45° 32° 22° 18° 20° 23° 25° 22° 27° 32° 34° 34° 40° 40°
RH 53% 55% 56% 59% 61% 63% 66% 69% 72% 78% 81% 88% 84% 74% 69% 56% 46% 39% 34% 31% 30% 30% 32% 35% 41% 45% 50% 54% 56% 58% 63% 63% 69% 53% 45% 50% 64% 86% 89% 82% 65% 63% 66% 40% 50% 75% 78% 37% 53% 76% 78% 47% 49%
POP 12HR 12% -- -- -- -- -- -- -- -- -- -- -- 0% -- -- -- -- -- -- -- -- -- -- -- 0% -- -- -- -- -- -- -- 5% -- -- -- 46% -- 82% -- 68% -- 7% -- 3% -- 3% -- 3% -- 5% -- 8%
RAIN/SNOW (liq.equ) 0.00in -- -- -- -- -- 0.00in -- -- -- -- -- 0.00in -- -- -- -- -- 0.00in -- -- -- -- -- 0.00in -- -- -- -- -- 0.00in -- 0.00in -- 0.00in -- 0.06in 0.05in 0.20in -- -- -- -- -- -- -- -- -- -- -- -- -- --
SNOWFALL 0in -- -- -- -- -- 0in -- -- -- -- -- 0in -- -- -- -- -- 0in -- -- -- -- -- 0in -- -- -- -- -- 0in -- 0in -- 0in -- 0in 0in 0in -- -- -- -- -- -- -- -- -- -- -- -- -- --
WIND SPEED(MPH) 10 9 8 7 7 7 7 7 6 6 5 5 5 5 5 2 2 2 2 2 2 2 1 1 1 1 1 1 1 1 1 2 2 6 6 7 7 7 5 8 13 8 9 7 7 5 2 5 2 5 7 13 8
WIND DIR NW NW NW NW NW NW NW NW N N N N N N NW NW NW NW NW NW NW NW NW N N NE E E E SE SE SE SE S S S S S SW NE NE NE NE NE N NE NE SE SE S S S S
HeatIndex 38 36 35 33 30 30 27 26 26 23 22 20 21 25 27 34 38 43 49 50 52 52 50 49 47 45 41 40 38 38 38 34 34 47 58 58 54 49 49 49 37 25 19 39 36 27 25 52 49 38 36 61 59
Rain Showers -- -- -- -- -- -- -- -- -- -- -- -- -- -- -- -- -- -- -- -- -- -- -- -- -- -- -- -- -- -- -- -- -- -- -- Chance Chance Chance Likely Chance -- -- -- -- -- -- -- -- -- -- -- -- --
WIND CHILL 37° 35° 35° 33° 30° 30° 28° 26° 25° 23° 22° 19° 22° 24° 26° -- -- -- -- -- -- -- -- -- -- -- -- -- -- -- -- -- -- -- -- -- -- -- -- -- 36° 25° 21° 39° 35° 26° -- -- -- 37° 35° -- --
SPRAY COND
DRY COND
LIVESTOCK COLDSTRESS

Click on individual weather variable above in left-hand column (ie., TEMP, RH, QPF 12HR) to view state forecast maps






NWS 48 Hr. Forecast Maps,

Regional Hourly Observations For CARROLL County, Kentucky
Issued at 100 PM EDT FRI MAR 22 2019
NORTHEAST KENTUCKY
  
CITY           SKY/WX    TMP DP  RH WIND       PRES   REMARKS
LEXINGTON      FAIR      53  36  52 W18G25    29.97F                  
COVINGTON      PTSUNNY   46  31  55 N17G28    29.98R                  
FRANKFORT      FAIR      54  36  50 W14G24    29.98S                  


Current NOWCAST not available:
Nowcasts are not issued routinely during fair weather. Only when
precipitation or other significant weather is occuring in this county will these
forecasts be issued. Currently, there is no short term forecast in effect.


Fire Weather Forecast For CARROLL County, KY
Provided by the National Weather Service:

Issued at: Fri Mar 22 13:05:01 EDT 2019

CLOUD COVER                     PCldy       MClear        Clear
PRECIP TYPE                      None         None         None
CHANCE PRECIP (%)                   0            0            0
TEMP (24H TREND)              50 (+1)     25 (-12)           52
RH % (24H TREND)             42 (-27)      84 (-8)           31
20FTWND-AM(MPH)              W  9 G18                   Lgt/Var
20FTWND-PM(MPH)             NW 14 G23    NW 10 G20      Lgt/Var
PRECIP AMOUNT                    0.00         0.00         0.00
PRECIP DURATION                                                
MIXING HGT(FT-AGL)               6750                      3820
TRANSPORT WND (MPH)             NW 26                      N  1
LAL                                 1            1            1
HAINES INDEX                        4            4            4

REMARKS...None.

.FORECAST FOR DAYS 3 THROUGH 7...
.SATURDAY NIGHT...Mostly clear. Lows in the mid 30s. Light winds. 
.SUNDAY...Mostly cloudy with a chance of showers. Highs around 60. South
winds around 5 mph. 
.MONDAY...Showers. Lows in the mid 40s. Highs in the lower 50s. North
winds 5 to 10 mph. 
.TUESDAY...Mostly clear. Lows in the upper 20s. Highs in the upper 40s.
Northeast winds 5 to 10 mph. 
.WEDNESDAY...Mostly clear. Lows in the upper 20s. Highs in the mid 50s.
East winds around 5 mph. 
.THURSDAY...Partly cloudy. Warmer. Lows in the upper 30s. Highs in the
upper 60s. South winds 5 to 10 mph. 

SPC's Fire Weather Web Tool (Excellent!), SPC's Fire Weather Outlooks, NWS Fire Weather WEB, Fire Danger Class Map,
Keetch-Byram Drought Index, ROMAN Web, Haines Index ,
WFAS's 10-hr Dead Fuel Moist., WFAS's 100-hr Dead Fuel Moist., Probablity of Ignition, Visual blackness Map, Palmer Drought Index, HPC's Rainfall Forecast Maps


Hazardous Weather Outlook For CARROLL County, Kentucky
322 AM EDT Fri Mar 22 2019

 DAY ONE  Today and Tonight.

No hazardous weather is expected at this time.

 DAYS TWO THROUGH SEVEN  Saturday through Thursday.

No hazardous weather is expected at this time.

 SPOTTER INFORMATION STATEMENT  

Spotter activation is not expected at this time.

Latest CARROLL County, Kentucky Watches, Warnings and Advisories.
Additional Drought Info.: UKAWC Drought Page, Kentucky Drought Watch


7-Day Forecast For CARROLL County, KY

REST OF TODAY
Partly cloudy. Highs in the lower 50s. Northwest winds 15 to 20 mph.

TONIGHT
Mostly clear. Lows in the mid 20s. Northwest winds 10 to 15 mph.

SATURDAY
Sunny. Highs in the lower 50s. Northwest winds around 5 mph.

SATURDAY NIGHT
Clear in the evening, then becoming partly cloudy. Lows in the mid 30s. Northeast winds around 5 mph, becoming southeast after midnight.

SUNDAY
Partly cloudy in the morning, then mostly cloudy with a chance of showers in the afternoon. Highs around 60. South winds 5 to 10 mph. Chance of rain 30 percent.

SUNDAY NIGHT
Cloudy. A chance of showers in the evening, then showers after midnight. Lows in the mid 40s. Chance of rain 80 percent.

MONDAY
Mostly cloudy. Showers, mainly in the morning. Highs in the lower 50s. Chance of rain 80 percent.

MONDAY NIGHT
Partly cloudy in the evening, then becoming clear. Much cooler with lows in the upper 20s.

TUESDAY
Sunny. Highs in the upper 40s.

TUESDAY NIGHT
Mostly clear. Lows in the upper 20s.

WEDNESDAY
Sunny. Highs in the mid 50s.

WEDNESDAY NIGHT
Mostly clear. Lows in the upper 30s.

THURSDAY
Partly cloudy. Highs in the upper 60s.

Ag Weather Center, Department of Biosystems & Agricultural Engineering, University of Kentucky